• In Latvia
  • List of Countries
  • For 7 days
  • Water Temperature
  • Satellite Maps
  • Weather Map
  • Weather Widgets
  • user-avatar
    Login

    Hourly Weather Salta

    Today, 24 May, Wednesday

    Time Temperature Precipitation Wind Pressure Humidity
    00:00 +13°C° 0 mm 2 mps 649 mmHg 66%
    01:00 +13°C° 0 mm 2 mps 649 mmHg 66%
    02:00 +13°C° 0 mm 2 mps 649 mmHg 64%
    03:00 +13°C° 0 mm 2 mps 649 mmHg 64%
    04:00 +13°C° 0 mm 2 mps 649 mmHg 64%
    05:00 +13°C° 0 mm 2 mps 649 mmHg 65%
    06:00 +14°C° 0 mm 2 mps 649 mmHg 62%
    07:00 +15°C° 0 mm 2 mps 649 mmHg 60%
    08:00 +15°C° 0 mm 2 mps 650 mmHg 58%
    09:00 +18°C° 0 mm 3 mps 650 mmHg 50%
    10:00 +21°C° 0 mm 3 mps 650 mmHg 42%
    11:00 +25°C° 0 mm 3 mps 651 mmHg 34%
    12:00 +26°C° 0 mm 4 mps 650 mmHg 33%
    13:00 +26°C° 0 mm 4 mps 650 mmHg 32%
    14:00 +27°C° 0 mm 5 mps 649 mmHg 31%
    15:00 +26°C° 0 mm 4 mps 649 mmHg 38%
    16:00 +25°C° 0 mm 4 mps 649 mmHg 44%
    17:00 +22°C° 0 mm 3 mps 649 mmHg 51%
    18:00 +20°C° 0 mm 3 mps 648 mmHg 59%
    19:00 +18°C° 0 mm 2 mps 648 mmHg 67%
    20:00 +16°C° 0 mm 2 mps 648 mmHg 75%
    21:00 +16°C° 0 mm 2 mps 649 mmHg 75%
    22:00 +16°C° 0 mm 2 mps 649 mmHg 75%
    23:00 +16°C° 0 mm 2 mps 649 mmHg 74%

    Tomorrow, 25 May, Thursday

    Time Temperature Precipitation Wind Pressure Humidity
    00:00 +15°C° 0 mm 2 mps 648 mmHg 74%
    01:00 +15°C° 0 mm 2 mps 648 mmHg 74%
    02:00 +15°C° 0 mm 2 mps 648 mmHg 73%
    03:00 +15°C° 0 mm 2 mps 648 mmHg 73%
    04:00 +15°C° 0 mm 2 mps 647 mmHg 72%
    05:00 +15°C° 0 mm 2 mps 647 mmHg 72%
    06:00 +16°C° 0 mm 2 mps 648 mmHg 70%
    07:00 +17°C° 0 mm 2 mps 648 mmHg 67%
    08:00 +18°C° 0 mm 2 mps 649 mmHg 65%
    09:00 +20°C° 0 mm 3 mps 649 mmHg 58%
    10:00 +22°C° 0 mm 4 mps 650 mmHg 51%
    11:00 +26°C° 0 mm 4 mps 650 mmHg 44%
    12:00 +27°C° 0 mm 5 mps 650 mmHg 41%
    13:00 +27°C° 0 mm 5 mps 650 mmHg 38%
    14:00 +28°C° 0 mm 6 mps 649 mmHg 35%
    15:00 +27°C° 0 mm 5 mps 649 mmHg 42%
    16:00 +25°C° 0 mm 4 mps 649 mmHg 50%
    17:00 +23°C° 0 mm 4 mps 650 mmHg 57%
    18:00 +21°C° 0.1 mm 3 mps 650 mmHg 63%
    19:00 +19°C° 0.1 mm 3 mps 650 mmHg 69%
    20:00 +17°C° 0.1 mm 3 mps 650 mmHg 75%
    21:00 +17°C° 0 mm 3 mps 651 mmHg 74%
    22:00 +16°C° 0 mm 3 mps 651 mmHg 74%
    23:00 +16°C° 0 mm 3 mps 651 mmHg 73%

    Day after tomorrow, 26 May, Friday

    Time Temperature Precipitation Wind Pressure Humidity
    00:00 +16°C° 0 mm 3 mps 651 mmHg 74%
    01:00 +14°C° 0 mm 3 mps 651 mmHg 74%
    02:00 +15°C° 0 mm 2 mps 651 mmHg 75%
    03:00 +14°C° 0 mm 3 mps 651 mmHg 76%
    04:00 +14°C° 0 mm 3 mps 650 mmHg 78%
    05:00 +13°C° 0 mm 3 mps 650 mmHg 79%
    06:00 +14°C° 0 mm 3 mps 651 mmHg 77%
    07:00 +14°C° 0 mm 3 mps 652 mmHg 76%
    08:00 +16°C° 0 mm 3 mps 653 mmHg 74%
    09:00 +17°C° 0 mm 3 mps 653 mmHg 69%
    10:00 +18°C° 0 mm 4 mps 653 mmHg 64%
    11:00 +20°C° 0 mm 5 mps 653 mmHg 59%
    12:00 +20°C° 0 mm 5 mps 653 mmHg 58%
    13:00 +20°C° 0 mm 5 mps 652 mmHg 57%
    14:00 +20°C° 0 mm 5 mps 652 mmHg 55%
    15:00 +19°C° 0 mm 5 mps 652 mmHg 60%
    16:00 +17°C° 0 mm 4 mps 652 mmHg 65%
    17:00 +16°C° 0 mm 3 mps 652 mmHg 70%
    18:00 +14°C° 0 mm 3 mps 652 mmHg 73%
    19:00 +14°C° 0 mm 2 mps 653 mmHg 75%
    20:00 +13°C° 0 mm 2 mps 653 mmHg 78%
    21:00 +13°C° 0 mm 2 mps 654 mmHg 78%
    22:00 +12°C° 0 mm 2 mps 654 mmHg 78%
    23:00 +12°C° 0 mm 2 mps 654 mmHg 78%

    27 May, Saturday

    Time Temperature Precipitation Wind Pressure Humidity
    00:00 +12°C° 0 mm 2 mps 654 mmHg 78%
    01:00 +12°C° 0 mm 2 mps 654 mmHg 78%
    02:00 +10°C° 0 mm 2 mps 653 mmHg 79%
    03:00 +10°C° 0 mm 2 mps 653 mmHg 78%
    04:00 +10°C° 0 mm 2 mps 653 mmHg 78%
    05:00 +10°C° 0 mm 2 mps 653 mmHg 77%
    06:00 +10°C° 0 mm 2 mps 653 mmHg 75%
    07:00 +12°C° 0 mm 2 mps 654 mmHg 73%
    08:00 +12°C° 0 mm 2 mps 654 mmHg 71%
    09:00 +13°C° 0 mm 2 mps 654 mmHg 65%
    10:00 +14°C° 0 mm 3 mps 654 mmHg 59%
    11:00 +16°C° 0 mm 3 mps 654 mmHg 53%
    12:00 +17°C° 0 mm 3 mps 654 mmHg 53%
    13:00 +18°C° 0 mm 3 mps 653 mmHg 52%
    14:00 +18°C° 0 mm 4 mps 652 mmHg 51%
    15:00 +17°C° 0 mm 3 mps 652 mmHg 55%
    16:00 +16°C° 0 mm 3 mps 652 mmHg 59%
    17:00 +15°C° 0 mm 2 mps 651 mmHg 64%
    18:00 +14°C° 0 mm 2 mps 652 mmHg 67%
    19:00 +13°C° 0 mm 2 mps 652 mmHg 70%
    20:00 +10°C° 0 mm 2 mps 652 mmHg 74%
    21:00 +10°C° 0 mm 2 mps 652 mmHg 73%
    22:00 +10°C° 0 mm 2 mps 652 mmHg 73%
    23:00 +9°C° 0 mm 2 mps 652 mmHg 72%

    28 May, Sunday

    Time Temperature Precipitation Wind Pressure Humidity
    00:00 +9°C° 0 mm 2 mps 652 mmHg 71%
    01:00 +9°C° 0 mm 2 mps 651 mmHg 71%
    02:00 +9°C° 0 mm 2 mps 651 mmHg 70%
    03:00 +9°C° 0 mm 2 mps 651 mmHg 70%
    04:00 +9°C° 0 mm 2 mps 651 mmHg 69%
    05:00 +8°C° 0 mm 2 mps 651 mmHg 69%
    06:00 +9°C° 0 mm 2 mps 651 mmHg 66%
    07:00 +10°C° 0 mm 2 mps 652 mmHg 64%
    08:00 +12°C° 0 mm 2 mps 652 mmHg 61%
    09:00 +14°C° 0 mm 2 mps 652 mmHg 56%
    10:00 +16°C° 0 mm 2 mps 652 mmHg 52%
    11:00 +17°C° 0 mm 3 mps 652 mmHg 48%
    12:00 +18°C° 0 mm 3 mps 651 mmHg 46%
    13:00 +19°C° 0 mm 3 mps 651 mmHg 45%
    14:00 +19°C° 0 mm 4 mps 650 mmHg 43%
    15:00 +18°C° 0 mm 3 mps 650 mmHg 48%
    16:00 +17°C° 0 mm 3 mps 650 mmHg 52%
    17:00 +16°C° 0 mm 2 mps 650 mmHg 57%
    18:00 +15°C° 0 mm 2 mps 650 mmHg 61%
    19:00 +13°C° 0 mm 2 mps 650 mmHg 65%
    20:00 +12°C° 0 mm 2 mps 651 mmHg 69%
    21:00 +12°C° 0 mm 2 mps 651 mmHg 68%
    22:00 +12°C° 0 mm 2 mps 651 mmHg 67%
    23:00 +10°C° 0 mm 2 mps 651 mmHg 67%

    29 May, Monday

    Time Temperature Precipitation Wind Pressure Humidity
    00:00 +10°C° 0 mm 2 mps 651 mmHg 66%
    01:00 +10°C° 0 mm 2 mps 650 mmHg 65%
    02:00 +10°C° 0 mm 2 mps 650 mmHg 65%
    03:00 +9°C° 0 mm 2 mps 650 mmHg 64%
    04:00 +9°C° 0 mm 2 mps 650 mmHg 64%
    05:00 +9°C° 0 mm 2 mps 650 mmHg 63%
    06:00 +10°C° 0 mm 2 mps 650 mmHg 61%
    07:00 +12°C° 0 mm 2 mps 651 mmHg 59%
    08:00 +12°C° 0 mm 2 mps 652 mmHg 57%
    09:00 +14°C° 0 mm 2 mps 652 mmHg 53%
    10:00 +16°C° 0 mm 2 mps 652 mmHg 49%
    11:00 +19°C° 0 mm 2 mps 652 mmHg 45%
    12:00 +19°C° 0 mm 2 mps 652 mmHg 44%
    13:00 +20°C° 0 mm 3 mps 651 mmHg 42%
    14:00 +21°C° 0 mm 3 mps 651 mmHg 41%
    15:00 +19°C° 0 mm 3 mps 651 mmHg 48%
    16:00 +18°C° 0 mm 3 mps 651 mmHg 55%
    17:00 +17°C° 0 mm 3 mps 651 mmHg 62%
    18:00 +14°C° 0 mm 3 mps 652 mmHg 67%
    19:00 +14°C° 0 mm 2 mps 652 mmHg 72%
    20:00 +12°C° 0 mm 2 mps 653 mmHg 77%
    21:00 +12°C° 0 mm 2 mps 653 mmHg 76%
    22:00 +10°C° 0 mm 2 mps 653 mmHg 75%
    23:00 +10°C° 0 mm 2 mps 653 mmHg 74%
    Show more